TIMESTAMP,CO2_1_1_1,H2O_1_1_1,TAU_1_1_1,TAU_SSITC_TEST_1_1_1,H_1_1_1,H_SSITC_TEST_1_1_1,LE_1_1_1,LE_SSITC_TEST_1_1_1,FC_1_1_1,FC_SSITC_TEST_1_1_1,WD_0_0_1,WS_0_0_1,WS_MAX_0_0_1,U_SIGMA_0_0_1,V_SIGMA_0_0_1,W_SIGMA_0_0_1,USTAR_0_0_1,MO_LENGTH_0_0_1,ZL_0_0_1,FETCH_MAX_0_0_1,FETCH_70_0_0_1,FETCH_80_0_0_1,FETCH_90_0_0_1,PA_0_0_1,RH_0_0_1,TA_0_0_1,VPD_0_0_1,T_SONIC_0_0_1,T_SONIC_SIGMA_0_0_1
[yyyymmddHHMMSS],[mmolCO2 mol-1],[mmolH2O mol-1],[kg m-1 s-2],[#],[W m-2],[#],[W m-2],[#],[umolCO2 m-2 s-1],[#],[Decimal degrees],[m s-1],[m s-1],[m s-1],[m s-1],[m s-1],[m s-1],[m],[#],[m],[m],[m],[m],[kPa],[%],[deg C],[hPa],[deg C],[deg C]
20220119003000,422.77666274305932,5.1303674367986671,0.56214661443070946,0,-28.198838456225619,0,3.3128780186453843,0,0.66264121429065825,0,192.90353859263126,3.1907234677303613,9.3097406857482170,1.3859059777017513,1.1372951270519736,0.89246476136577368,0.69194777801873886,963.21417791318925,1.9725623268091467E-002,102.15054624026604,186.76377777294846,223.50854185979949,279.80617192004877,91.824600486762151,84.475862068965512,-1.2117241379310144,0.86596204526829357,-1.4552228766547159,8.6389078406292050E-002
20220119010000,423.14851809561412,5.1688348828586008,0.46407404192592200,0,-24.699571101333095,0,4.5368463659897333,0,0.96200315766986577,0,196.86600068813993,2.8925587014404055,8.6332653265635670,1.4493806488330057,1.1642908945149169,0.86229356684462888,0.62884859956795791,825.35718344202724,2.3020336384258964E-002,97.267479349133396,177.83597412165039,212.82424108206459,266.43069519157700,91.811490887586814,84.553333333333327,-1.1243333333333112,0.86718192943289463,-1.3633481852213549,8.2771494939199178E-002
20220119013000,423.52833709410424,5.2034062248811814,0.43717310553975741,0,-19.929600213578933,0,3.1431435529030685,0,0.63754267850921920,0,202.75246806013246,3.1224694857583395,7.8086712897600261,1.2297194559469993,1.2238503575045081,0.84571245995765254,0.61039272242004483,935.39264875122785,2.0312325551591053E-002,96.463761793813632,176.36652209795886,211.06568231298940,264.22918829086973,91.802300810763896,85.066666666666663,-1.1173333333333630,0.83879362544449698,-1.3592251230875263,8.1760340399805814E-002
20220119020000,424.12657356724884,5.2850791379018833,0.60530612463950850,0,-25.535627334979072,0,-1.2010595218445603,2,-6.0517260859676743E-002,2,216.88634867281112,3.5475389088280047,9.4030177479930153,1.5236172879654755,1.2184309972843645,0.89131085685097933,0.71843372751807533,1190.3816413101977,1.5961267664618538E-002,105.37580673662740,192.66058260437347,230.56551117804665,288.64066009605131,91.802764451388896,85.526666666666671,-0.97833333333335304,0.82127906336934531,-1.2091015955606963,9.6779584203693800E-002
20220119023000,424.75074171630848,5.3790923077929715,0.89620906575131298,0,-30.100198847872900,0,-0.33732833297368620,2,0.34345188673758709,1,226.11825193720199,4.0144100598050203,11.801075037686239,1.7314011940844087,1.3062998715992666,1.0148471107300179,0.87447054348259490,1821.2847335337960,1.0432196377737568E-002,111.15539645604942,203.22751591707527,243.21143152092486,304.47185174583694,91.812030459720717,85.823333333333338,-0.78333333333330302,0.81600687563934349,-1.0069471356391091,0.10837741668888473
20220119030000,425.00031746914954,5.3887099073637224,0.86626513500548596,0,-23.968675357424988,0,3.3969015337811146,0,0.56681412954654020,1,233.86995671464780,3.9209965800673170,12.811559972379207,1.6546730280140780,1.3986588193743621,1.0355447891117384,0.86000575401865087,2175.6252008673064,8.7331218596041760E-003,107.92470625601077,197.32078385561300,236.14258184377309,295.62249077026047,91.815202514105906,84.866666666666660,-0.60500000000001819,0.88249719558572393,-0.85442822689475406,6.9574813292370336E-002
20220119033000,425.09529574292753,5.3637218114604677,0.90480452956274438,0,-12.307377166707667,0,-2.8300699955384880,2,0.83540320591004669,0,251.25912229229124,4.2733491372881129,12.430523955074190,1.9505015288655700,1.6624939136707173,1.1237851183246510,0.87885699849038645,4522.2364793366114,4.2014609556170757E-003,102.85913098520771,188.05929667821522,225.05894710925853,281.74709531459177,91.827605950737848,84.513333333333335,-0.60966666666666924,0.90279408676492778,-0.87374735938175263,6.9682067993294600E-002
20220119040000,423.89322713868779,5.1305397523518828,1.5692077326688629,0,60.576955885551683,1,61.591329205302458,1,9.1294870541376802,1,257.32427167673910,5.3484581967588758,14.905576142764714,2.2165274889664826,1.9067846029120028,1.3558590100893757,1.1560327829707686,-2091.7015398749786,-9.0835138942124763E-003,110.21974315971923,201.51684328007025,241.16419328631775,301.90895241023532,91.872560204581461,83.790000000000006,-1.0930000000000177,0.91212882326241695,-1.4818149561773453,0.38947367591214271
20220119043000,421.46044156696587,4.4947937339582635,2.1291024724288516,0,29.680092241257011,0,20.836430504134608,1,1.5632666126593389,1,253.29724134953364,6.4929611315997171,20.181481109399122,2.8361598298197217,2.2767269789083064,1.5733508656924240,1.3438189535552476,-6707.9508744076866,-2.8324596222803590E-003,110.37406632542600,201.79899524583152,241.50185712671640,302.33166746976548,91.927589270182295,78.376000000000005,-1.9750000000000227,1.1403155716862778,-2.4442410244411121,0.30323172096457224
20220119050000,421.05828969399420,4.0145589809592677,1.9170025354746216,0,51.453967861762870,1,42.284730391582094,1,1.5759267591518906,0,256.06233292014713,7.1028582860954765,18.395646710178479,2.8287154260518772,2.4893910466164848,1.6230018105260702,1.2729470446453246,-3290.3744247789109,-5.7744188190001081E-003,103.09746007423237,188.49503826411663,225.58041849762859,282.39991561278509,91.998009559461821,73.623000000000005,-2.6456666666666706,1.3235630745728588,-3.1719320314195443,0.20835097457319068
20220119053000,421.72424768150188,3.6868279314513304,1.9216784981998831,0,8.6905487828944779,2,7.0601402418075816,2,1.7115979648929485,1,256.54940100599816,5.9259155430692463,16.286188017319549,2.5622367968331883,2.3117947054835892,1.4344313981904098,1.2713879377619690,-19425.033466370158,-9.7811929296770560E-004,113.69295198760936,207.86697674059423,248.76368119184895,311.42260947991997,92.107615082548492,72.741666666666660,-3.6103333333333012,1.2728608718461198,-4.2149084248146096,0.43631863286689809
20220119060000,422.55547427250104,3.3630682887655388,1.2910963756170064,0,13.026595505983666,2,0.72568735078646773,2,0.68215928048924890,0,269.51345009210092,5.5462036440300002,13.493516498715881,2.3047878352618181,1.8436529018361401,1.2782791234013136,1.0382658354276273,-7061.6365272479043,-2.6905944431842308E-003,106.02326976310718,193.84435151451959,231.98218022469325,290.41416163438834,92.186809398003476,75.644000000000005,-5.3366666666666447,0.99851002354557128,-5.9522164467704215,0.38579128378427380
20220119063000,422.37952053809170,3.0279908106084950,1.7515721859931099,0,39.642839174614210,1,4.4158211334497768,2,0.96636296837188351,0,251.72120770317724,5.8359942932069169,15.100892390916313,2.4983417943595518,1.9116900883185037,1.4631872555191878,1.2051244028352022,-3630.8903846708808,-5.2328762333931599E-003,107.21127887538974,196.01641106784498,234.58158075827319,293.66830264634194,92.276505266710075,76.838999999999999,-6.9016666666666424,0.84243765941147675,-7.5658577295939722,0.50750507595052596
20220119070000,422.52952839084060,2.7487415158419597,1.9920723747231379,0,120.44746501238495,1,37.294781484623741,1,-0.49008198455723107,2,260.30018055937205,5.3446521406080603,17.443093585162249,2.7484316412636738,1.8549133065347008,1.4047614200146397,1.2811999538153234,-1437.1361849427788,-1.3220737324038993E-002,116.32320890451859,212.67592526212215,254.51876434952766,318.62729067032262,92.391727206957455,77.207666666666668,-8.1976666666666915,0.74991463186053664,-8.8026209646183702,0.51827876190478461
20220119073000,423.01690777186826,2.4407438127051044,1.8218410279623602,0,47.855974173177053,0,5.6614590020056115,1,0.43373561481097750,1,265.11700529282189,6.2397881049483814,15.425455201399394,2.5933814805730511,2.0214677924124280,1.4482186318202619,1.2208301687519385,-3131.4580736995622,-6.0674610845270075E-003,109.22242072739147,199.69341979409953,238.98202108246730,299.17713175698827,92.480886055555558,77.893666666666661,-9.8149999999999977,0.64077450667318347,-10.488019848293789,0.52622763503615155
20220119080000,423.01014682926160,2.2211237435030045,1.8710975593425883,0,46.762078194051007,0,9.9734774498286765,1,0.67263681421968702,0,257.17851396140622,6.0074841982352858,16.807080834851057,2.5195322387417569,1.9846982779093376,1.4070864156972687,1.2339520926858518,-3311.0435176627134,-5.7383721774252666E-003,112.72932918257503,206.10516692126077,246.65524481061328,308.78309732677565,92.560104639835799,77.685000000000002,-10.959666666666692,0.59070791758050523,-11.648103132511210,0.33201477948612990
20220119083000,422.95257419039302,2.0546645835258914,1.0318279685532448,0,50.503782794078226,1,6.3612430770927428,1,0.33918147713835695,0,252.49232231527975,5.7944515597306818,16.376013004641234,2.1074956952319659,1.8612658445038524,1.2405081599387346,0.91427539827564674,-1247.7986324710923,-1.5226815854392412E-002,98.092731138527071,179.34479759322076,214.62991741864263,268.69118769562385,92.645988752604168,77.409999999999997,-11.877666666666642,0.55565240495061941,-12.538658134460434,0.21318396638017720
20220119090000,422.80497554539204,1.9705274676028051,1.3313018670399634,0,42.911644324369618,1,10.658153018933080,1,0.91303938056868861,0,255.90214091688676,5.3120008296196888,15.991491954399168,2.3269722802766575,1.6720751341166749,1.2675273082002534,1.0371621236473636,-2144.9590920575874,-8.8579777909768599E-003,106.65135036679644,194.99268317409792,233.35643993321034,292.13457171386227,92.712932935329874,77.233999999999995,-12.360000000000014,0.53866343468367750,-12.997434302859858,0.13148898851923707
20220119093000,422.71537514488142,1.9166005759062972,1.7637443878011425,0,30.592877537757992,0,7.4047337453325026,0,0.94534475065864976,0,249.92152621266445,5.5819959324350341,14.582316038762102,2.2979906014469487,1.8932786600184073,1.3611242512375983,1.1927645075649325,-4577.7162492030939,-4.1505412231060829E-003,112.66277608798207,205.98348663832397,246.50962458951582,308.60079808988570,92.759391653326077,77.063000000000002,-12.670000000000016,0.52929365538926165,-13.303648106862966,8.8990693306105192E-002
20220119100000,422.73044455768940,1.9142981609659888,1.6127380383912633,0,18.497070679951580,0,6.9362454091673049,0,0.83389358996912111,0,254.69821732558168,5.0920334061140835,13.951424517616839,2.2109141871888109,1.8472378546398636,1.2978669871683139,1.1394883932246191,-6605.4704016476326,-2.8764037751589566E-003,112.83366006009328,206.29591703999085,246.88352398447310,309.06887576385594,92.841023974609371,78.683000000000007,-12.930999999999983,0.48162736897307412,-13.560631730821342,0.10598520062011763
20220119103000,422.55234748829639,1.9096935446466368,1.8371026608402437,0,24.155950879519825,0,5.3658789274599519,0,0.85847189921731948,0,256.98266950539789,5.2048016109379791,15.494842845956908,2.4807442626041665,1.8440260917030566,1.3302264695104968,1.2151303512349418,-6135.9406555957858,-3.0965097393294695E-003,116.46963821963587,212.94364475139128,254.83915620167113,319.02838325012607,92.889184652560772,80.534999999999997,-13.240999999999985,0.42885952000969751,-13.890142608642577,0.14230687999008068
20220119110000,422.60426562453830,1.8312311883901535,0.95477105624361092,0,-5.7475808341816972,2,4.0685333087704052,1,0.69487012128645076,1,260.14874387389580,4.6859105074726202,13.479877043214728,1.8681168167726221,1.6172614643013172,1.1780469453940965,0.87478633072500034,9629.7607837645264,1.9730500504263203E-003,98.683924502149452,180.42568761337506,215.92346670960418,270.31055790976484,92.998366953993070,79.936333333333337,-13.650333333333322,0.42756392839155072,-14.283997126685222,0.11563559042964010
20220119113000,422.75138037597100,1.8436848500142300,1.2731127421315940,0,12.390858200104706,0,1.2175656208008347,0,0.43156622193382355,0,261.08251354997441,4.9538083143946299,12.153902420408121,2.0444058725584329,1.7658610709493199,1.2143242020532512,1.0092723270222244,-6863.1669111432593,-2.7684012710154238E-003,107.99256876946713,197.44485817384978,236.29106711367947,295.80837670828015,93.060190246310768,82.393333333333331,-13.930000000000007,0.36673484098577602,-14.572127652910012,7.7388537588695752E-002
20220119120000,422.67804927820174,1.7571780985053236,1.5516023992175436,0,2.8796468795190373,2,-0.54692619004007270,2,0.50998666209956900,0,266.57529270178617,4.7425261807349681,13.155425042683142,2.2242555445536345,1.7226939217344366,1.2706683302451220,1.1133209034834650,-39662.863861856014,-4.7903752150061963E-004,112.64850329417381,205.95739141916837,246.47839527699855,308.56170269641910,93.140538642144094,79.756666666666661,-14.109333333333325,0.41551436014063259,-14.764142890930088,0.10236101245086791
20220119123000,422.67982656783653,1.7243985294735193,1.6000748819276109,0,17.882521315192164,0,3.9668172249438336,0,0.63900165873156123,0,266.30482066657260,5.3925398486801770,13.419171456067280,2.2218924364461325,1.6913208281827166,1.2668569046075506,1.1295869097077509,-6674.1432074259665,-2.8468073593116349E-003,114.23746843018345,208.86252646223181,249.95509994170234,312.91412437584449,93.202422122612845,80.130333333333340,-14.387999999999977,0.39863456593601571,-15.060813203599707,7.8434290128834697E-002
20220119130000,422.66595152937288,1.7444351836626655,1.0976359094741239,0,8.3597498087708839,1,2.3793798140162394,1,0.36016324262995142,0,268.98100559541996,4.9874849222627313,14.024071720385315,1.9830359452571995,1.5863546748802457,1.1726547898751225,0.93524556404358150,-8106.3912148184136,-2.3438296396635981E-003,104.48628301956529,191.03424955054521,228.61920588387201,286.20411682473269,93.255723050347214,81.349999999999994,-14.424333333333323,0.37305089758025306,-15.072970512813981,5.6356848013557913E-002
20220119133000,422.71767249681204,1.7874929109637554,1.0503206570164012,0,0.79488390512313156,2,-3.2610954648194701,2,0.44239623543353207,0,267.42062437660536,4.8097916554031865,11.352457382484854,1.8369580629474911,1.3799674548750054,1.0800990929704899,0.91456808997841210,-79765.335593896540,-2.3819870948369503E-004,109.61168507050608,200.40511916280769,239.83374345625592,300.24338709991804,93.322803177951400,83.326666666666668,-14.411000000000001,0.33387738738913669,-15.036325833214619,5.7985389627407617E-002
20220119140000,422.65182895050566,1.8451685606891375,0.84587476489783520,0,18.406577820459496,2,5.2945893305723777,1,0.39848947458513762,0,270.97753310066173,3.7375053585626912,9.5501963082285517,1.6482355346201574,1.3786051867435087,0.98283762770758454,0.82071705796945460,-2490.8452822342156,-7.6279326281388114E-003,108.39874342242405,198.18747498221640,237.17978976631494,296.92095200971340,93.402684782750242,84.700000000000003,-14.212666666666678,0.31140093037875516,-14.782462836586319,0.13749539493556284
20220119143000,422.20457466282397,1.8267417247728948,0.82446338347179915,0,10.416708485714954,1,1.0085112391976681,2,0.20720280174247035,1,294.08701510778019,5.0303191119239976,14.636114900541576,2.0018066438473756,1.7620253294327659,1.2280503472101512,0.81048547852805830,-4240.8961958703940,-4.4801851124065236E-003,89.800375447936062,164.18372667961947,196.48598772660324,245.97714075821162,93.467013554036456,81.727666666666664,-13.890333333333331,0.38183602794925237,-14.535710036807586,0.10879553542460581
20220119150000,421.82737918913813,1.7642647960866724,1.3088822080892812,0,56.665937997347143,0,2.1200731780949980,2,6.7874943262706822E-002,2,295.83423988023958,5.2168217903091758,16.178611864541256,2.3240453434244768,1.7189227814975603,1.2317551161750320,1.0207341989528793,-1558.1799078682382,-1.2193713899182600E-002,107.73716232612978,196.97789373772196,235.73222994801557,295.10877889089949,93.543453492838537,79.108999999999995,-13.907666666666671,0.43594026251516171,-14.659540555318188,0.10176856727909679
20220119153000,421.94181489959425,1.7530760508301264,1.3301181373806235,0,76.464401931255196,0,5.8282213777483101,0,-4.7939694387918917E-002,2,293.45655305424833,5.0923712557514831,14.022473420467341,2.1340995596478072,1.7253923952963277,1.2578512450465302,1.0287729351727257,-1183.0749028660125,-1.6059845369022944E-002,106.61224702988694,194.92118980285773,233.27088062749760,292.02746161594649,93.637510448133682,77.686000000000007,-13.751000000000033,0.47163036970029398,-14.534911261664490,0.13806514342097656
20220119160000,421.63617819838976,1.7326102635130129,1.8641957259250188,0,115.31604756608067,0,19.215886916649637,0,2.1676382871610800,1,301.41845312636320,5.4078556974974648,15.847705377050621,2.6875170454677244,1.8972357344350079,1.2556250958660236,1.2175150149896146,-1301.1211813504674,-1.4602790479730265E-002,122.16487942672191,223.35636208196468,267.30051940125310,334.62853125685211,93.719927474392378,76.496333333333340,-13.694999999999993,0.49905028309030913,-14.502576060824879,0.17379657784770802
20220119163000,421.01550600023410,1.7133402060015108,1.3708686660616791,0,113.97299614325595,0,18.315426907365371,1,1.0038296503920050,0,298.94385946406311,4.9390062110392163,14.778876485085826,2.3966548574812512,1.6848315719589819,1.2436570838382548,1.0438147285954331,-830.07815502878168,-2.2889410936661986E-002,108.84114902846807,198.99633352809602,238.14778686037769,298.13276950476609,93.800723641276036,75.081666666666663,-13.592666666666673,0.53352080661907930,-14.403111674838556,0.18452196584068267
20220119170000,420.54540514855904,1.6570008173217770,1.2953894317017181,0,107.64503312188741,0,13.335244770441216,0,0.48991758822299042,1,302.26474791968434,5.3950378568925146,13.620472384674850,2.3331710573376738,1.7702172010017350,1.2457235620210501,1.0144086750811310,-807.01430803247445,-2.3543572661459473E-002,106.23996534089063,194.24054014221755,232.45631682406028,291.00772439370019,93.858031359188317,72.483666666666664,-13.563333333333333,0.59055595078413492,-14.429829405466307,0.19860091469495558
20220119173000,420.40120448473652,1.6876097307541416,1.4823885456169383,0,157.62497336486248,0,23.235600795208690,0,0.72957253289098167,0,293.36220250168731,6.1987275207189283,14.913522779121548,2.5839074187669948,2.0045295752258947,1.3316794666233678,1.0848470310695788,-674.19216663356235,-2.8181875940316140E-002,106.27471303710475,194.30407001310624,232.53234585375864,291.10290371694970,93.877718405758600,74.432333333333332,-13.661666666666633,0.54435283383850730,-14.578812696674504,0.23100174052998543
20220119180000,420.41481798207798,1.5835483943933752,1.5106758741429915,0,139.94373172393128,0,12.516015605578268,0,0.48765283198737025,1,298.02609986149645,6.2760569299079583,15.675353107297456,2.5007237045826232,2.0875471146035958,1.3654562785047382,1.0950896552473459,-781.33916362899515,-2.4317224688639578E-002,104.95240669548397,191.88647229264615,229.63909884544137,287.48090178771605,93.922390994574656,69.276666666666671,-13.555999999999983,0.65977872809104920,-14.528206429375530,0.23615327999424462
20220119183000,420.47901908176425,1.5492121591411541,1.6546719585782408,0,242.18546895876838,0,17.173520708332568,1,-0.99848210908071100,2,290.57681736754517,5.6833252197571653,16.784439174995104,2.6176859657968481,1.9264243241509973,1.3493484884917957,1.1457936824147741,-517.34732648343459,-3.6725810741400203E-002,109.86028895285877,200.85964634788999,240.37769640893654,300.92435164886865,93.973679500651045,67.760000000000005,-13.546666666666681,0.69287556194113253,-14.547954294840451,0.30673164779213469
20220119190000,420.36409289159536,1.5130927268998060,1.3330464846615973,0,196.41901849089655,0,11.870940338941834,0,0.37854977867336553,0,291.52644189062960,5.2840021155015648,12.526884343448669,2.1713113135545048,1.6674981843348897,1.2564766789252615,1.0281089033847441,-460.98293316312913,-4.1216276424004668E-002,106.65043966519529,194.99101812111766,233.35444729005343,292.13207716108548,94.016878995028421,66.412333333333336,-13.584000000000003,0.71964605435191664,-14.616233915900068,0.34754832475942826
20220119193000,420.40680200558319,1.4626723506538239,1.3837220875695218,0,136.35670609127584,0,22.421975422589178,1,1.0552806535149157,1,305.45582073138536,4.8358900517814352,14.593953110366341,2.2622525067750603,1.9070806731878773,1.2789940824313732,1.0468736063484216,-701.30771952789928,-2.7092244204570095E-002,106.67814915665623,195.04167990899728,233.41507651094415,292.20797775111555,94.063920657769089,65.075000000000003,-13.744000000000028,0.73859922168685843,-14.702346332126126,0.25428512561519906
20220119200000,420.54283561167642,1.4369809504826614,1.6761521645742921,0,210.76583155786122,0,14.808543121452379,0,-1.0167430297218751,2,288.44192604164624,5.2188880477736168,14.261955801111323,2.3876720210057210,1.8413903182643119,1.3325953916334865,1.1520172318410207,-604.78133841128442,-3.1416313290869038E-002,111.44573027966439,203.75833874386717,243.84669087055312,305.26712106895485,94.100618765407987,63.837000000000003,-13.721000000000004,0.76621729642858583,-14.695149565802694,0.29086964534382154
20220119203000,420.85138232004078,1.4537584334976901,1.8558138827400097,0,244.58062296902958,0,-2.7355214801372636,2,-1.0507844602906475,1,290.15005150918785,6.2676065879428453,15.728848333512856,2.8602513988580291,1.9946836000829167,1.3704612624553816,1.2112168101466685,-605.95109078144242,-3.1355665975445896E-002,113.43289081375542,207.39150197253193,248.19465933242859,310.71026163451586,94.152776294487850,66.075333333333333,-13.994000000000028,0.70293971903527908,-15.056513961792007,0.31961303494739673
20220119210000,421.04139013064685,1.4382856609162287,1.0652239356766835,0,115.45292998820624,0,-0.34472468805765361,2,3.7026767739785665E-002,2,286.22792528733669,4.9707526923264469,13.191174987341403,2.0757867472510734,1.7734276593128480,1.1930686804246602,0.91653670666192177,-556.56759683141047,-3.4137812025293451E-002,101.40104577836584,185.39345188768294,221.86861176125126,277.75317403785112,94.238222006510426,67.555666666666667,-14.384000000000015,0.65112711971409287,-15.308665540059337,0.27195398212099486
20220119213000,421.02914081256159,1.3777892672787833,1.0916989120090403,0,58.668967175678041,0,14.627266727849934,1,5.4779171916925162E-002,2,286.10516452106197,5.4870056454357483,14.808942403254694,2.1203537486151629,1.7498079241016999,1.1950423067631974,0.92695066530916470,-1133.5841270556691,-1.6760996865181874E-002,102.18651118541410,186.82953316311009,223.58723426766196,279.90468547671173,94.306258395182297,66.446333333333328,-14.696666666666658,0.65630959938469602,-15.569924158732078,0.12893066885517979
20220119220000,421.30826562967366,1.3670354284520521,0.88229862188398722,0,9.7646047756111489,1,-2.4323620155617842,1,0.21068525365646040,0,284.75357858002417,3.7916613708652780,10.023098377295716,1.9216893076101311,1.3236166517717078,0.99453379855467960,0.83203689508385348,-4928.1000578213834,-3.8554411998687234E-003,108.56087373568569,198.48390090366996,237.53453588605817,297.36505205592596,94.372010160373264,69.413333333333327,-15.312666666666644,0.56862860718243891,-16.036287048763654,0.11244249322004685
20220119223000,421.34456161512799,1.5108786113004291,0.62337197284316692,0,1.2506540207761463,2,0.45917448555431523,2,0.35821425091022707,0,279.50341506065411,3.6447471545716987,9.8137647955881864,1.6056233661587960,1.3471096974703634,0.84627176131663273,0.69902854919756885,-22823.830790293970,-8.3246323435239944E-004,107.45903862242398,196.46939490434201,235.12368671687398,294.34695497787692,94.410142509331592,77.793000000000006,-15.475999999999999,0.40729968884255530,-16.137347933875162,4.9271003325485223E-002